sat.trackr.live / text

‹ back to catalog

STARLINK-11099 [DTC]

NORAD 59716 · 2024-088J

PAYLOAD ACTIVE UNKNOWN

§ Identity

Operator
Country
US
Launch date
2024-05-10
Launch site
AFWTR
Launch vehicle
Mass (kg)
RCS (m²)

Purposes: comms

External: N2YO · Heavens-Above · Gunter

§ Orbital elements

Epoch: 2026-09-21T17:36:26.082144Z

Period
91.74 min
Inclination
53.1596°
Eccentricity
0.0001337
Mean motion
15.69662623 rev/d
Perigee alt
359.0 km
Apogee alt
360.8 km
Semi-major
6,738.0 km
B*
8.6524e-5
RAAN
79.8088°
Arg perigee
102.6604°
Mean anomaly
257.4564°
Rev number
13,706

§ Raw data

STARLINK-11099 [DTC]1 59716U 24088J   26264.73363521  .00009886  00000+0  86524-4 0  99992 59716  53.1596  79.8088 0001337 102.6604 257.4564 15.69662623137068

JSON: /api/v1/satellites/59716 · /tle

For live sub-satellite position, see the globe view (requires WebGL).

§ Visibility from observer

Set your observer location to see the next 7 days of passes ≥ 10°. The values pass through the URL so the page stays shareable.

No JS? Fill the form by hand. The geolocation button needs JavaScript.